Location: Pulvis Stellarum Observatory
(41.6962°N, 71.4263°W)
Time: 16:45:56
(UTC-04:00)

Daily predictions for brighter satellites

Satellite Brightness Start Highest point End
(mag) Time Altitude Azimuth Time Altitude Azimuth Time Altitude Azimuth
EO 1 Delta rocket 4.4 19:45:17 10° NNE 19:49:55 43° E 19:55:20 10° SSE
CZ-4B DEB 3.0 19:47:49 10° SSE 19:51:00 52° ENE 19:54:13 10° N
Lacrosse 5 2.0 19:52:35 10° NW 19:57:37 62° NE 20:02:37 10° ESE
Iridium 4 Rocket 3.8 19:53:05 10° NNE 19:57:38 37° E 20:01:48 10° SSE
Cosmos 2227 Rocket 2.7 19:53:38 10° NNW 19:59:14 64° WSW 20:04:48 10° S
Spot 2 Rocket 4.1 19:57:19 10° S 20:02:20 61° WSW 20:07:23 10° NNW
Cosmos 2322 Rocket 3.9 20:02:10 10° ESE 20:03:33 11° E 20:04:57 10° E
Cosmos 1500 3.7 20:01:59 10° SSE 20:05:27 36° E 20:08:58 10° NNE
SL-24 R/B - RUBIN 2 4.5 20:01:56 10° SSW 20:07:49 88° WNW 20:14:24 10° NNE
Cosmos 1975 2.8 20:04:10 10° S 20:08:14 68° E 20:12:19 10° NNE
CZ-2D R/B 3.3 20:06:03 10° SSE 20:09:53 67° ENE 20:13:46 10° N
Lacrosse 5 rocket 2.9 20:07:08 10° WNW 20:10:20 27° SW 20:13:27 10° S
Cosmos 2084 3.5 20:06:30 10° NW 20:10:35 79° SW 20:14:52 10° SSE
Cosmos 1340 4.2 20:07:56 10° NNE 20:10:45 19° ENE 20:12:38 14° ESE
Cosmos 1937 Rocket 3.8 20:07:40 10° N 20:12:48 49° ENE 20:17:52 10° SE
Envisat 4.2 20:09:25 12° ESE 20:12:59 24° ENE 20:17:01 10° NNE
Cosmos 2297 Rocket 2.6 20:08:20 10° NNW 20:13:57 68° WSW 20:19:34 10° SSE
Cosmos 1605 Rocket 4.2 20:12:01 10° S 20:18:20 80° W 20:24:37 10° N
H-2A R/B 3.8 20:17:53 13° E 20:19:25 16° ENE 20:21:55 10° NNE
Cosmos 990 Rocket 4.5 20:15:23 10° N 20:20:22 42° ENE 20:24:22 15° SE
Cosmos 2298 Rocket 4.0 20:15:46 10° NNW 20:21:06 87° ENE 20:26:26 10° SSE
Cosmos 1626 Rocket 3.6 20:16:49 10° N 20:21:13 82° W 20:25:34 10° S
BREEZE-M DEB (TANK) 4.2 20:18:23 10° NW 20:21:34 45° NNE 20:29:06 13° E
USA 186 1.4 20:22:02 10° SSE 20:25:01 83° ENE 20:27:48 10° N
ALOS 2.5 20:21:28 10° S 20:26:07 73° WSW 20:30:48 10° NNW
Cosmos 1515 3.7 20:26:04 10° N 20:29:55 86° W 20:33:44 10° S
Cosmos 2100 Rocket 4.1 20:23:52 10° SSE 20:29:57 55° E 20:35:59 10° NNE
OAO 2 Rocket 4.1 20:26:03 10° WSW 20:30:37 37° S 20:33:37 19° SE
CZ-4 DEB 3.4 20:30:35 25° ESE 20:31:52 36° ENE 20:34:48 10° N
Cosmos 1602 Rocket 4.1 20:27:28 10° NNW 20:31:53 63° W 20:36:14 10° S
ERS-1 Rocket 3.3 20:28:46 15° SE 20:32:34 45° ENE 20:37:20 10° N
YAOGAN 11 4.3 20:34:20 17° SE 20:37:36 53° ENE 20:41:56 10° N
Cosmos 1763 Rocket 3.5 20:40:01 10° S 20:44:57 55° ESE 20:49:55 10° NNE
Cosmos 2150 Rocket 4.4 20:40:55 10° NNW 20:46:01 64° WSW 20:51:08 10° S
Cosmos 2061 Rocket 4.0 20:40:01 10° S 20:46:14 67° E 20:52:26 10° NNE
Cosmos 1697 Rocket 3.0 20:41:51 10° SSW 20:47:29 69° WNW 20:53:08 10° NNE
deb Chang Zheng 4 4.4 20:45:00 10° NE 20:48:54 30° E 20:49:21 29° ESE
Tiangong 1 1.6 20:46:03 10° W 20:49:02 45° SSW 20:49:40 38° SSE
Cosmos 1939 Rocket 3.2 20:47:20 28° SE 20:49:12 51° ENE 20:53:15 10° N
Cosmos 1743 2.6 20:45:55 10° S 20:49:48 72° E 20:53:44 10° NNE
Cosmos 1459 Rocket 3.8 20:47:23 10° S 20:53:24 79° E 20:59:33 10° N
Cosmos 1066 Rocket 4.5 20:48:41 10° NNW 20:54:23 73° W 21:00:10 10° S
Cosmos 1898 Rocket 4.4 20:51:12 10° NNW 20:56:17 49° WSW 21:01:18 10° S
ARGOS 4.4 20:57:33 22° E 20:58:38 23° ENE 21:02:48 10° NNE
SL-16 R/B 2.7 21:00:04 30° SE 21:01:31 34° ESE 21:06:35 10° NE
Cosmos 1725 Rocket 4.3 20:58:22 25° SE 21:01:31 43° E 21:07:22 10° NNE
Cosmos 1125 Rocket 4.1 20:57:37 10° N 21:02:32 40° ENE 21:03:59 33° ESE
Cosmos 2058 Rocket 3.3 21:03:44 39° SE 21:04:46 47° E 21:09:06 10° NNE
Cosmos 1606 Rocket 3.4 21:01:24 17° S 21:04:47 76° E 21:09:15 10° N
Cosmos 2098 Rocket 4.0 21:02:48 15° SSE 21:08:14 55° E 21:13:36 10° NNE
BREEZE-M DEB (TANK) 3.8 20:53:17 10° WSW 21:08:55 86° SSE 21:12:09 22° ENE
Cosmos 841 Rocket 3.4 21:04:57 10° SSW 21:10:11 83° ESE 21:15:26 10° NNE
ASTEX 1 3.6 21:06:24 10° NNE 21:11:16 49° E 21:12:21 42° SE
Cosmos 1980 Rocket 2.4 21:06:16 10° SSW 21:11:55 72° WNW 21:17:38 10° NNE
Cosmos 540 Rocket 4.3 21:16:03 31° ENE 21:16:03 31° ENE 21:19:32 10° NE
RESURS DK-1 3.9 21:12:05 10° NW 21:15:48 32° WSW 21:18:10 18° SSW
Cosmos 2233 Rocket 4.4 21:22:18 38° E 21:22:51 39° E 21:28:34 10° NNE
Cosmos 1726 Rocket 3.7 21:24:43 27° SSW 21:27:03 73° W 21:31:29 10° N
Cosmos 1842 3.1 21:23:58 10° N 21:27:49 86° NE 21:27:49 86° NE
Cosmos 1666 2.6 21:29:44 81° NW 21:29:44 81° NW 21:33:28 10° N
YAOGAN 6 3.4 21:30:59 44° NNE 21:30:59 44° NNE 21:33:47 10° N
Cosmos 372 Rocket 4.3 21:28:36 10° N 21:33:33 46° ENE 21:33:42 46° ENE
SL-08 R/B 4.5 21:29:48 15° S 21:35:07 83° W 21:41:18 10° N
Cosmos 2263 Rocket 2.7 21:30:52 10° NNW 21:36:09 42° ENE 21:36:35 41° ENE
Cosmos 332 Rocket 4.2 21:37:52 49° ENE 21:37:52 49° ENE 21:41:43 10° NNE
Lacrosse 5 3.6 21:36:16 10° WNW 21:40:12 23° WSW 21:41:56 19° SSW
Cosmos 2016 Rocket 4.5 21:38:46 10° SSW 21:44:47 58° W 21:50:56 10° N
SL-19 R/B 4.2 21:40:19 10° NNE 21:45:06 56° ENE 21:45:06 56° ENE
Cosmos 2322 Rocket 2.0 21:43:35 28° SSW 21:46:40 87° ESE 21:52:19 10° NNE
SPOT 5 3.0 21:47:47 63° SSW 21:48:25 72° WSW 21:53:11 10° NNW
Envisat 4.0 21:49:38 28° SSW 21:51:45 42° W 21:56:34 10° NNW
MetOp-A 4.2 21:52:04 60° SSW 21:52:59 75° WSW 21:58:22 10° NNW
H-2A R/B 2.8 21:55:01 45° W 21:55:03 45° W 21:59:04 10° NNW
Cosmos 2228 3.4 21:55:49 60° NW 21:55:49 60° NW 21:59:34 10° N
CZ-4B R/B 4.4 21:55:19 10° NNE 21:58:08 34° NE 21:58:08 34° NE
Terra 3.3 22:03:43 27° NE 22:03:43 27° NE 22:06:28 10° N
Meteor 2-5 Rocket 3.9 21:57:07 10° N 22:02:35 58° ENE 22:02:35 58° ENE
USA 245 4.5 22:06:08 65° S 22:07:07 80° WSW 22:13:26 10° NNW
BREEZE-M DEB (TANK) 4.5 22:16:29 10° WNW 22:17:24 21° W 22:17:24 21° W
Cosmos 2346 Rocket 4.3 22:13:24 10° N 22:19:34 88° NNE 22:19:34 88° NNE
H-2A R/B 2.9 22:25:29 42° N 22:25:29 42° N 22:28:49 10° N
BREEZE-M DEB (TANK) 3.9 22:14:00 10° WSW 22:25:43 86° NNW 22:25:52 84° NNE
Cosmos 2278 Rocket 4.3 22:26:38 10° NNE 22:29:36 15° NE 22:29:36 15° NE
USA 215 3.6 22:37:03 53° NE 22:37:33 55° NNE 22:43:53 10° NW
ARGOS 3.9 22:39:04 47° W 22:39:04 47° W 22:43:46 10° NNW
SL-16 R/B 3.6 22:41:43 16° WSW 22:45:34 35° WNW 22:50:46 10° N
Cosmos 1844 Rocket 4.1 22:42:02 10° N 22:45:36 30° NNE 22:45:36 30° NNE
Cosmos 2360 Rocket 3.4 22:58:32 37° N 22:58:32 37° N 23:01:56 10° NNE
Cosmos 2263 Rocket 4.0 23:15:12 10° NW 23:18:16 24° WNW 23:18:16 24° WNW
Terra 4.4 23:42:37 17° NW 23:42:37 17° NW 23:43:59 10° NW
Cosmos 2333 Rocket 4.4 23:51:28 18° NE 23:51:28 18° NE 23:52:51 10° NNE
ATLAS 3B R/B 4.2 23:52:25 30° NE 23:52:25 30° NE 23:55:54 10° NE
